Location: Carri�res
(48.9069°N, 2.1792°E)
Time: 13:53:46
(UTC+00:00)

Meteor 2-5 Rocket - Pass Details

Date: 17 January 2021
Orbit: 833 x 911 km, 81.2° (Epoch: 25 February)

Event Time Altitude Azimuth Distance (km) Brightness Sun altitude
Rises 17:22:52 0° 176° (S) 3,410 7.1 -9.3°
Reaches altitude 10° 17:25:19 10° 171° (S) 2,468 6.3 -9.7°
Maximum altitude 17:30:45 55° 96° (E) 1,007 3.8 -10.5°
Drops below altitude 10° 17:36:09 10° 20° (NNE) 2,458 5.8 -11.4°
Sets 17:38:36 0° 16° (NNE) 3,394 6.5 -11.7°
